This is the latest recevied weather packets stored in our database for station/object KC3WWU. If no packets are shown the sender has not sent any weather packets the latest 10 day(s).
| Time | Temp. | Humidity | Pressure | Rain* | Wind** | Luminosity | Snow |
|---|---|---|---|---|---|---|---|
| 1777508324 | 12.22° C | 99% | 1004.8 hPa | 0 mm | - | 0 W/m² | - |
| 1777508021 | 12.22° C | 99% | 1005.3 hPa | 0 mm | - | 1 W/m² | - |
| 1777507718 | 12.22° C | 99% | 1005 hPa | 0 mm | - | 1 W/m² | - |
| 1777507415 | 12.22° C | 99% | 1004.5 hPa | 1.27 mm | - | 3 W/m² | - |
| 1777507112 | 12.22° C | 99% | 1004.9 hPa | 1.27 mm | - | 5 W/m² | - |
| 1777506810 | 12.22° C | 99% | 1005 hPa | 0 mm | - | 4 W/m² | - |
| 1777506506 | 12.78° C | 99% | 1005 hPa | 0 mm | - | 2 W/m² | - |
| 1777506201 | 12.78° C | 99% | 1005 hPa | 0 mm | - | 3 W/m² | - |
| 1777505898 | 12.78° C | 99% | 1004.9 hPa | 0 mm | - | 7 W/m² | - |
| 1777505594 | 12.78° C | 99% | 1004.7 hPa | 0 mm | - | 8 W/m² | - |
| 1777505291 | 12.78° C | 99% | 1004.4 hPa | 0 mm | - | 12 W/m² | - |
| 1777504988 | 12.78° C | 99% | 1004.5 hPa | 0 mm | - | 15 W/m² | - |
| 1777504685 | 12.78° C | 99% | 1004.3 hPa | 0 mm | - | 20 W/m² | - |
| 1777504382 | 12.78° C | 99% | 1004.1 hPa | 0 mm | - | 25 W/m² | - |
| 1777504082 | 12.78° C | 99% | 1004.2 hPa | 0 mm | - | 28 W/m² | - |
| 1777503778 | 12.78° C | 99% | 1004.2 hPa | 0 mm | - | 45 W/m² | - |
| 1777503475 | 12.78° C | 99% | 1004.2 hPa | 0 mm | - | 44 W/m² | - |
| 1777503170 | 12.78° C | 99% | 1004.2 hPa | 1.78 mm | - | 55 W/m² | - |
| 1777502868 | 12.78° C | 99% | 1004.3 hPa | 1.78 mm | - | 68 W/m² | - |
| 1777502566 | 12.78° C | 99% | 1004.3 hPa | 1.78 mm | - | 75 W/m² | - |
| 1777502263 | 12.78° C | 99% | 1004.3 hPa | 1.27 mm | - | 77 W/m² | - |
| 1777501960 | 12.78° C | 99% | 1004.5 hPa | 1.27 mm | - | 47 W/m² | - |
| 1777501657 | 12.78° C | 99% | 1004.7 hPa | 1.27 mm | - | 38 W/m² | - |
| 1777501353 | 12.78° C | 99% | 1004.4 hPa | 0 mm | - | 46 W/m² | - |
| 1777501051 | 12.78° C | 99% | 1004.7 hPa | 1.78 mm | - | 23 W/m² | - |
* Rain latest hour (hover to see other rain measurements)
** Current wind speed in m/s (hover to see current wind gust speed)